Voltar ao catálogo

TITAN 34B DEB

LostHEO
NORAD 44321·DEBRIS·🇺🇸 United States

Lançado Apr 24, 1981 de Vandenberg Space Force Base

Loading…

Próximas Passagens (próximas 24 horas)

TLE

ObsoletoSource: Space-Track

Época: May 4, 2022, 08:18 UTC

1 44321U 81038G   22124.34639779  .00017595  00000-0  51157-2 0  9991
2 44321  63.0094 302.1512 6397734 264.4438  24.7316  3.44820460 34845

Acompanhe TITAN 34B DEB em tempo real com AllMySat

Download on the App Store